Year,Month,Day,Hour,Minute,Value (Times are PST for windgust in km/hr)
2014,06,20,00,00,20.90
2014,06,20,00,01,29.00
2014,06,20,00,02,22.50
2014,06,20,00,03,19.30
2014,06,20,00,04,11.30
2014,06,20,00,05,24.20
2014,06,20,00,06,32.20
2014,06,20,00,07,24.20
2014,06,20,00,08,22.50
2014,06,20,00,09,22.50
2014,06,20,00,10,24.20
2014,06,20,00,11,30.60
2014,06,20,00,12,24.20
2014,06,20,00,13,43.50
2014,06,20,00,14,43.50
2014,06,20,00,15,32.20
2014,06,20,00,16,22.50
2014,06,20,00,17,51.50
2014,06,20,00,18,30.60
2014,06,20,00,19,27.40
2014,06,20,00,20,30.60
2014,06,20,00,21,41.80
2014,06,20,00,22,35.40
2014,06,20,00,23,32.20
2014,06,20,00,24,24.20
2014,06,20,00,25,35.40
2014,06,20,00,26,25.70
2014,06,20,00,27,38.60
2014,06,20,00,28,12.90
2014,06,20,00,29,27.40
2014,06,20,00,30,25.70
2014,06,20,00,31,14.50
2014,06,20,00,32,9.60
2014,06,20,00,33,9.60
2014,06,20,00,34,11.30
2014,06,20,00,35,25.70
2014,06,20,00,36,25.70
2014,06,20,00,37,25.70
2014,06,20,00,38,33.80
2014,06,20,00,39,25.70
2014,06,20,00,40,30.60
2014,06,20,00,41,25.70
2014,06,20,00,42,19.30
2014,06,20,00,43,24.20
2014,06,20,00,44,20.90
2014,06,20,00,45,19.30
2014,06,20,00,46,19.30
2014,06,20,00,47,24.20
2014,06,20,00,48,24.20
2014,06,20,00,49,32.20
2014,06,20,00,50,27.40
2014,06,20,00,51,29.00
2014,06,20,00,52,24.20
2014,06,20,00,53,17.70
2014,06,20,00,54,20.90
2014,06,20,00,55,41.80
2014,06,20,00,56,29.00
2014,06,20,00,57,22.50
2014,06,20,00,58,22.50
2014,06,20,00,59,22.50
2014,06,20,01,00,20.90
2014,06,20,01,01,17.70
2014,06,20,01,02,17.70
2014,06,20,01,03,32.20
2014,06,20,01,04,29.00
2014,06,20,01,05,24.20
2014,06,20,01,06,17.70
2014,06,20,01,07,27.40
2014,06,20,01,08,29.00
2014,06,20,01,09,25.70
2014,06,20,01,10,11.30
2014,06,20,01,11,22.50
2014,06,20,01,12,16.10
2014,06,20,01,13,6.40
2014,06,20,01,14,19.30
2014,06,20,01,15,14.50
2014,06,20,01,16,12.90
2014,06,20,01,17,9.60
2014,06,20,01,18,16.10
2014,06,20,01,19,14.50
2014,06,20,01,20,8.10
2014,06,20,01,21,11.30
2014,06,20,01,22,16.10
2014,06,20,01,23,12.90
2014,06,20,01,24,17.70
2014,06,20,01,25,22.50
2014,06,20,01,26,20.90
2014,06,20,01,27,16.10
2014,06,20,01,28,9.60
2014,06,20,01,29,9.60
2014,06,20,01,30,14.50
2014,06,20,01,31,14.50
2014,06,20,01,32,17.70
2014,06,20,01,33,16.10
2014,06,20,01,34,14.50
2014,06,20,01,35,16.10
2014,06,20,01,36,22.50
2014,06,20,01,37,20.90
2014,06,20,01,38,24.20
2014,06,20,01,39,19.30
2014,06,20,01,40,24.20
2014,06,20,01,41,22.50
2014,06,20,01,42,14.50
2014,06,20,01,43,24.20
2014,06,20,01,44,19.30
2014,06,20,01,45,17.70
2014,06,20,01,46,14.50
2014,06,20,01,47,24.20
2014,06,20,01,48,19.30
2014,06,20,01,49,20.90
2014,06,20,01,50,22.50
2014,06,20,01,51,16.10
2014,06,20,01,52,20.90
2014,06,20,01,53,29.00
2014,06,20,01,54,24.20
2014,06,20,01,55,25.70
2014,06,20,01,56,20.90
2014,06,20,01,57,22.50
2014,06,20,01,58,24.20
2014,06,20,01,59,24.20
2014,06,20,02,00,29.00
2014,06,20,02,01,22.50
2014,06,20,02,02,20.90
2014,06,20,02,03,19.30
2014,06,20,02,04,19.30
2014,06,20,02,05,11.30
2014,06,20,02,06,9.60
2014,06,20,02,07,17.70
2014,06,20,02,08,25.70
2014,06,20,02,09,22.50
2014,06,20,02,10,19.30
2014,06,20,02,11,20.90
2014,06,20,02,12,17.70
2014,06,20,02,13,19.30
2014,06,20,02,14,30.60
2014,06,20,02,15,24.20
2014,06,20,02,16,19.30
2014,06,20,02,17,11.30
2014,06,20,02,18,12.90
2014,06,20,02,19,19.30
2014,06,20,02,20,20.90
2014,06,20,02,21,25.70
2014,06,20,02,22,19.30
2014,06,20,02,23,20.90
2014,06,20,02,24,16.10
2014,06,20,02,25,20.90
2014,06,20,02,26,19.30
2014,06,20,02,27,16.10
2014,06,20,02,28,17.70
2014,06,20,02,29,12.90
2014,06,20,02,30,22.50
2014,06,20,02,31,29.00
2014,06,20,02,32,35.40
2014,06,20,02,33,25.70
2014,06,20,02,34,14.50
2014,06,20,02,35,24.20
2014,06,20,02,36,25.70
2014,06,20,02,37,25.70
2014,06,20,02,38,25.70
2014,06,20,02,39,22.50
2014,06,20,02,40,27.40
2014,06,20,02,41,27.40
2014,06,20,02,42,27.40
2014,06,20,02,43,20.90
2014,06,20,02,44,25.70
2014,06,20,02,45,17.70
2014,06,20,02,46,24.20
2014,06,20,02,47,19.30
2014,06,20,02,48,20.90
2014,06,20,02,49,19.30
2014,06,20,02,50,19.30
2014,06,20,02,51,16.10
2014,06,20,02,52,20.90
2014,06,20,02,53,16.10
2014,06,20,02,54,16.10
2014,06,20,02,55,19.30
2014,06,20,02,56,16.10
2014,06,20,02,57,16.10
2014,06,20,02,58,20.90
2014,06,20,02,59,11.30
2014,06,20,03,00,11.30
2014,06,20,03,01,11.30
2014,06,20,03,02,17.70
2014,06,20,03,06,16.10
2014,06,20,03,07,20.90
2014,06,20,03,08,24.20
2014,06,20,03,09,16.10
2014,06,20,03,10,25.70
2014,06,20,03,11,27.40
2014,06,20,03,12,17.70
2014,06,20,03,13,17.70
2014,06,20,03,14,14.50
2014,06,20,03,15,19.30
2014,06,20,03,16,17.70
2014,06,20,03,17,17.70
2014,06,20,03,18,22.50
2014,06,20,03,19,20.90
2014,06,20,03,20,19.30
2014,06,20,03,21,19.30
2014,06,20,03,22,17.70
2014,06,20,03,23,25.70
2014,06,20,03,24,16.10
2014,06,20,03,25,20.90
2014,06,20,03,26,20.90
2014,06,20,03,27,11.30
2014,06,20,03,28,16.10
2014,06,20,03,29,12.90
2014,06,20,03,30,17.70
2014,06,20,03,31,17.70
2014,06,20,03,32,16.10
2014,06,20,03,33,14.50
2014,06,20,03,34,11.30
2014,06,20,03,35,6.40
2014,06,20,03,36,8.10
2014,06,20,03,37,16.10
2014,06,20,03,38,8.10
2014,06,20,03,39,3.20
2014,06,20,03,40,3.20
2014,06,20,03,41,9.60
2014,06,20,03,42,17.70
2014,06,20,03,43,14.50
2014,06,20,03,44,8.10
2014,06,20,03,45,8.10
2014,06,20,03,46,4.80
2014,06,20,03,47,1.60
2014,06,20,03,48,4.80
2014,06,20,03,49,4.80
2014,06,20,03,50,6.40
2014,06,20,03,51,4.80
2014,06,20,03,52,3.20
2014,06,20,03,53,3.20
2014,06,20,03,54,3.20
2014,06,20,03,55,6.40
2014,06,20,03,56,8.10
2014,06,20,03,57,4.80
2014,06,20,03,58,3.20
2014,06,20,03,59,3.20
2014,06,20,04,00,3.20
2014,06,20,04,01,1.60
2014,06,20,04,06,3.20
2014,06,20,04,07,3.20
2014,06,20,04,08,3.20
2014,06,20,04,09,6.40
2014,06,20,04,10,6.40
2014,06,20,04,11,4.80
2014,06,20,04,12,4.80
2014,06,20,04,13,4.80
2014,06,20,04,14,8.10
2014,06,20,04,15,8.10
2014,06,20,04,16,6.40
2014,06,20,04,17,6.40
2014,06,20,04,18,4.80
2014,06,20,04,19,6.40
2014,06,20,04,20,6.40
2014,06,20,04,21,6.40
2014,06,20,04,22,6.40
2014,06,20,04,23,6.40
2014,06,20,04,24,6.40
2014,06,20,04,25,6.40
2014,06,20,04,26,1.60
2014,06,20,04,27,1.60
2014,06,20,04,28,3.20
2014,06,20,04,29,4.80
2014,06,20,04,30,3.20
2014,06,20,04,31,3.20
2014,06,20,04,32,4.80
2014,06,20,04,33,6.40
2014,06,20,04,34,8.10
2014,06,20,04,35,11.30
2014,06,20,04,36,9.60
2014,06,20,04,37,4.80
2014,06,20,04,38,9.60
2014,06,20,04,39,8.10
2014,06,20,04,40,8.10
2014,06,20,04,41,11.30
2014,06,20,04,42,17.70
2014,06,20,04,43,6.40
2014,06,20,04,44,11.30
2014,06,20,04,45,12.90
2014,06,20,04,46,16.10
2014,06,20,04,47,9.60
2014,06,20,04,48,6.40
2014,06,20,04,49,3.20
2014,06,20,04,50,3.20
2014,06,20,04,51,16.10
2014,06,20,04,52,14.50
2014,06,20,04,53,9.60
2014,06,20,04,54,12.90
2014,06,20,04,55,14.50
2014,06,20,04,56,14.50
2014,06,20,04,57,14.50
2014,06,20,04,58,9.60
2014,06,20,04,59,8.10
2014,06,20,05,00,11.30
2014,06,20,05,01,14.50
2014,06,20,05,02,12.90
2014,06,20,05,03,12.90
2014,06,20,05,04,14.50
2014,06,20,05,05,14.50
2014,06,20,05,06,19.30
2014,06,20,05,07,9.60
2014,06,20,05,08,14.50
2014,06,20,05,09,16.10
2014,06,20,05,10,9.60
2014,06,20,05,11,8.10
2014,06,20,05,12,8.10
2014,06,20,05,13,8.10
2014,06,20,05,14,9.60
2014,06,20,05,15,11.30
2014,06,20,05,16,11.30
2014,06,20,05,17,16.10
2014,06,20,05,18,14.50
2014,06,20,05,19,11.30
2014,06,20,05,20,14.50
2014,06,20,05,21,12.90
2014,06,20,05,22,11.30
2014,06,20,05,23,9.60
2014,06,20,05,24,16.10
2014,06,20,05,25,14.50
2014,06,20,05,26,16.10
2014,06,20,05,27,11.30
2014,06,20,05,28,8.10
2014,06,20,05,29,9.60
2014,06,20,05,30,8.10
2014,06,20,05,31,8.10
2014,06,20,05,32,9.60
2014,06,20,05,33,9.60
2014,06,20,05,34,9.60
2014,06,20,05,35,9.60
2014,06,20,05,36,8.10
2014,06,20,05,37,11.30
2014,06,20,05,38,22.50
2014,06,20,05,39,20.90
2014,06,20,05,40,14.50
2014,06,20,05,41,8.10
2014,06,20,05,42,9.60
2014,06,20,05,43,8.10
2014,06,20,05,44,9.60
2014,06,20,05,45,16.10
2014,06,20,05,46,11.30
2014,06,20,05,47,11.30
2014,06,20,05,48,16.10
2014,06,20,05,49,16.10
2014,06,20,05,50,17.70
2014,06,20,05,51,14.50
2014,06,20,05,52,14.50
2014,06,20,05,53,17.70
2014,06,20,05,54,11.30
2014,06,20,05,55,9.60
2014,06,20,05,56,9.60
2014,06,20,05,57,17.70
2014,06,20,05,58,16.10
2014,06,20,05,59,14.50
2014,06,20,06,00,14.50
2014,06,20,06,01,12.90
2014,06,20,06,02,17.70
2014,06,20,06,03,19.30
2014,06,20,06,04,20.90
2014,06,20,06,05,11.30
2014,06,20,06,06,19.30
2014,06,20,06,07,12.90
2014,06,20,06,08,9.60
2014,06,20,06,09,11.30
2014,06,20,06,10,9.60
2014,06,20,06,11,9.60
2014,06,20,06,12,9.60
2014,06,20,06,13,6.40
2014,06,20,06,14,8.10
2014,06,20,06,15,11.30
2014,06,20,06,16,8.10
2014,06,20,06,17,9.60
2014,06,20,06,18,9.60
2014,06,20,06,19,9.60
2014,06,20,06,20,6.40
2014,06,20,06,21,4.80
2014,06,20,06,22,4.80
2014,06,20,06,23,8.10
2014,06,20,06,24,6.40
2014,06,20,06,25,8.10
2014,06,20,06,26,6.40
2014,06,20,06,27,4.80
2014,06,20,06,28,3.20
2014,06,20,06,29,1.60
2014,06,20,06,30,4.80
2014,06,20,06,31,3.20
2014,06,20,06,33,1.60
2014,06,20,06,38,1.60
2014,06,20,06,39,3.20
2014,06,20,06,40,1.60
2014,06,20,06,41,1.60
2014,06,20,06,42,1.60
2014,06,20,06,45,1.60
2014,06,20,06,46,1.60
2014,06,20,06,47,1.60
2014,06,20,06,48,1.60
2014,06,20,06,49,3.20
2014,06,20,06,50,4.80
2014,06,20,06,51,3.20
2014,06,20,06,52,3.20
2014,06,20,06,53,4.80
2014,06,20,06,54,4.80
2014,06,20,06,55,1.60
2014,06,20,06,57,1.60
2014,06,20,06,58,1.60
2014,06,20,06,59,4.80
2014,06,20,07,00,4.80
2014,06,20,07,01,3.20
2014,06,20,07,02,4.80
2014,06,20,07,03,8.10
2014,06,20,07,04,3.20
2014,06,20,07,05,3.20
2014,06,20,07,06,3.20
2014,06,20,07,07,4.80
2014,06,20,07,08,4.80
2014,06,20,07,09,1.60
2014,06,20,07,12,4.80
2014,06,20,07,13,6.40
2014,06,20,07,14,8.10
2014,06,20,07,15,4.80
2014,06,20,07,16,6.40
2014,06,20,07,17,6.40
2014,06,20,07,18,6.40
2014,06,20,07,19,4.80
2014,06,20,07,20,4.80
2014,06,20,07,21,4.80
2014,06,20,07,22,4.80
2014,06,20,07,23,4.80
2014,06,20,07,24,3.20
2014,06,20,07,25,1.60
2014,06,20,07,28,3.20
2014,06,20,07,29,1.60
2014,06,20,07,30,1.60
2014,06,20,07,31,1.60
2014,06,20,07,32,1.60
2014,06,20,07,33,1.60
2014,06,20,07,34,1.60
2014,06,20,07,35,1.60
2014,06,20,07,37,1.60
2014,06,20,07,39,3.20
2014,06,20,07,40,4.80
2014,06,20,07,41,3.20
2014,06,20,07,42,4.80
2014,06,20,07,43,4.80
2014,06,20,07,44,4.80
2014,06,20,07,45,6.40
2014,06,20,07,46,6.40
2014,06,20,07,47,6.40
2014,06,20,07,48,6.40
2014,06,20,07,49,6.40
2014,06,20,07,50,9.60
2014,06,20,07,51,8.10
2014,06,20,07,52,6.40
2014,06,20,07,53,4.80
2014,06,20,07,54,6.40
2014,06,20,07,55,6.40
2014,06,20,07,56,6.40
2014,06,20,07,57,4.80
2014,06,20,07,58,3.20
2014,06,20,07,59,4.80
2014,06,20,08,00,6.40
2014,06,20,08,01,8.10
2014,06,20,08,02,6.40
2014,06,20,08,03,6.40
2014,06,20,08,04,4.80
2014,06,20,08,05,8.10
2014,06,20,08,06,9.60
2014,06,20,08,07,9.60
2014,06,20,08,08,8.10
2014,06,20,08,09,6.40
2014,06,20,08,10,8.10
2014,06,20,08,11,6.40
2014,06,20,08,12,6.40
2014,06,20,08,13,6.40
2014,06,20,08,14,6.40
2014,06,20,08,15,6.40
2014,06,20,08,16,9.60
2014,06,20,08,17,11.30
2014,06,20,08,18,8.10
2014,06,20,08,19,6.40
2014,06,20,08,20,4.80
2014,06,20,08,21,9.60
2014,06,20,08,22,8.10
2014,06,20,08,23,8.10
2014,06,20,08,24,6.40
2014,06,20,08,25,8.10
2014,06,20,08,26,9.60
2014,06,20,08,27,4.80
2014,06,20,08,28,4.80
2014,06,20,08,29,6.40
2014,06,20,08,30,8.10
2014,06,20,08,31,8.10
2014,06,20,08,32,8.10
2014,06,20,08,33,9.60
2014,06,20,08,34,9.60
2014,06,20,08,35,9.60
2014,06,20,08,36,9.60
2014,06,20,08,37,8.10
2014,06,20,08,38,6.40
2014,06,20,08,39,9.60
2014,06,20,08,40,6.40
2014,06,20,08,41,8.10
2014,06,20,08,42,8.10
2014,06,20,08,43,11.30
2014,06,20,08,44,9.60
2014,06,20,08,45,8.10
2014,06,20,08,46,8.10
2014,06,20,08,47,9.60
2014,06,20,08,48,8.10
2014,06,20,08,49,9.60
2014,06,20,08,50,8.10
2014,06,20,08,51,8.10
2014,06,20,08,52,8.10
2014,06,20,08,53,8.10
2014,06,20,08,54,6.40
2014,06,20,08,55,6.40
2014,06,20,08,56,6.40
2014,06,20,08,57,8.10
2014,06,20,08,58,6.40
2014,06,20,08,59,6.40
2014,06,20,09,00,8.10
2014,06,20,09,01,8.10
2014,06,20,09,02,11.30
2014,06,20,09,03,14.50
2014,06,20,09,04,11.30
2014,06,20,09,05,14.50
2014,06,20,09,06,12.90
2014,06,20,09,07,14.50
2014,06,20,09,08,11.30
2014,06,20,09,09,17.70
2014,06,20,09,10,14.50
2014,06,20,09,11,14.50
2014,06,20,09,12,11.30
2014,06,20,09,13,9.60
2014,06,20,09,14,11.30
2014,06,20,09,15,11.30
2014,06,20,09,16,16.10
2014,06,20,09,17,12.90
2014,06,20,09,18,11.30
2014,06,20,09,19,12.90
2014,06,20,09,20,11.30
2014,06,20,09,21,11.30
2014,06,20,09,22,12.90
2014,06,20,09,23,11.30
2014,06,20,09,24,14.50
2014,06,20,09,25,11.30
2014,06,20,09,26,9.60
2014,06,20,09,27,9.60
2014,06,20,09,28,17.70
2014,06,20,09,29,16.10
2014,06,20,09,30,16.10
2014,06,20,09,31,19.30
2014,06,20,09,32,14.50
2014,06,20,09,33,14.50
2014,06,20,09,34,12.90
2014,06,20,09,35,11.30
2014,06,20,09,36,11.30
2014,06,20,09,37,14.50
2014,06,20,09,38,14.50
2014,06,20,09,39,16.10
2014,06,20,09,40,11.30
2014,06,20,09,41,11.30
2014,06,20,09,42,14.50
2014,06,20,09,43,9.60
2014,06,20,09,44,11.30
2014,06,20,09,45,14.50
2014,06,20,09,46,8.10
2014,06,20,09,47,9.60
2014,06,20,09,48,8.10
2014,06,20,09,49,9.60
2014,06,20,09,50,14.50
2014,06,20,09,51,17.70
2014,06,20,09,52,12.90
2014,06,20,09,53,14.50
2014,06,20,09,54,9.60
2014,06,20,09,55,12.90
2014,06,20,09,56,12.90
2014,06,20,09,57,11.30
2014,06,20,09,58,9.60
2014,06,20,09,59,9.60
2014,06,20,10,00,16.10
2014,06,20,10,01,11.30
2014,06,20,10,02,11.30
2014,06,20,10,03,11.30
2014,06,20,10,04,11.30
2014,06,20,10,05,11.30
2014,06,20,10,06,16.10
2014,06,20,10,07,11.30
2014,06,20,10,08,16.10
2014,06,20,10,09,16.10
2014,06,20,10,10,14.50
2014,06,20,10,11,11.30
2014,06,20,10,12,9.60
2014,06,20,10,13,11.30
2014,06,20,10,14,11.30
2014,06,20,10,15,12.90
2014,06,20,10,16,9.60
2014,06,20,10,17,11.30
2014,06,20,10,18,11.30
2014,06,20,10,19,9.60
2014,06,20,10,20,12.90
2014,06,20,10,21,17.70
2014,06,20,10,22,19.30
2014,06,20,10,23,9.60
2014,06,20,10,24,16.10
2014,06,20,10,25,14.50
2014,06,20,10,26,8.10
2014,06,20,10,27,11.30
2014,06,20,10,28,16.10
2014,06,20,10,29,16.10
2014,06,20,10,30,16.10
2014,06,20,10,31,17.70
2014,06,20,10,32,12.90
2014,06,20,10,33,8.10
2014,06,20,10,34,8.10
2014,06,20,10,35,11.30
2014,06,20,10,36,12.90
2014,06,20,10,37,9.60
2014,06,20,10,38,11.30
2014,06,20,10,39,9.60
2014,06,20,10,40,12.90
2014,06,20,10,41,9.60
2014,06,20,10,42,8.10
2014,06,20,10,43,8.10
2014,06,20,10,44,9.60
2014,06,20,10,45,8.10
2014,06,20,10,46,11.30
2014,06,20,10,47,11.30
2014,06,20,10,48,14.50
2014,06,20,10,49,11.30
2014,06,20,10,50,9.60
2014,06,20,10,51,14.50
2014,06,20,10,52,11.30
2014,06,20,10,53,9.60
2014,06,20,10,54,12.90
2014,06,20,10,55,9.60
2014,06,20,10,56,16.10
2014,06,20,10,57,9.60
2014,06,20,10,58,16.10
2014,06,20,10,59,8.10
2014,06,20,11,00,11.30
2014,06,20,11,01,11.30
2014,06,20,11,02,9.60
2014,06,20,11,03,16.10
2014,06,20,11,04,11.30
2014,06,20,11,05,11.30
2014,06,20,11,06,14.50
2014,06,20,11,07,11.30
2014,06,20,11,08,9.60
2014,06,20,11,09,16.10
2014,06,20,11,10,14.50
2014,06,20,11,11,11.30
2014,06,20,11,12,8.10
2014,06,20,11,13,8.10
2014,06,20,11,14,8.10
2014,06,20,11,15,11.30
2014,06,20,11,16,14.50
2014,06,20,11,17,11.30
2014,06,20,11,18,14.50
2014,06,20,11,19,11.30
2014,06,20,11,20,9.60
2014,06,20,11,21,16.10
2014,06,20,11,22,11.30
2014,06,20,11,23,14.50
2014,06,20,11,24,16.10
2014,06,20,11,25,9.60
2014,06,20,11,26,11.30
2014,06,20,11,27,14.50
2014,06,20,11,28,9.60
2014,06,20,11,29,9.60
2014,06,20,11,30,11.30
2014,06,20,11,31,11.30
2014,06,20,11,32,9.60
2014,06,20,11,33,14.50
2014,06,20,11,34,12.90
2014,06,20,11,35,12.90
2014,06,20,11,36,9.60
2014,06,20,11,37,6.40
2014,06,20,11,38,11.30
2014,06,20,11,39,6.40
2014,06,20,11,40,12.90
2014,06,20,11,41,11.30
2014,06,20,11,42,11.30
2014,06,20,11,43,12.90
2014,06,20,11,44,8.10
2014,06,20,11,45,9.60
2014,06,20,11,46,11.30
2014,06,20,11,47,9.60
2014,06,20,11,48,12.90
2014,06,20,11,49,11.30
2014,06,20,11,50,9.60
2014,06,20,11,51,6.40
2014,06,20,11,52,9.60
2014,06,20,11,53,9.60
2014,06,20,11,54,9.60
2014,06,20,11,55,6.40
2014,06,20,11,56,9.60
2014,06,20,11,57,9.60
2014,06,20,11,58,8.10
2014,06,20,11,59,8.10
2014,06,20,12,00,8.10
2014,06,20,12,01,8.10
2014,06,20,12,02,8.10
2014,06,20,12,03,8.10
2014,06,20,12,04,9.60
2014,06,20,12,05,9.60
2014,06,20,12,06,6.40
2014,06,20,12,07,9.60
2014,06,20,12,08,9.60
2014,06,20,12,09,6.40
2014,06,20,12,10,8.10
2014,06,20,12,11,11.30
2014,06,20,12,12,9.60
2014,06,20,12,13,9.60
2014,06,20,12,14,8.10
2014,06,20,12,15,9.60
2014,06,20,12,16,8.10
2014,06,20,12,17,8.10
2014,06,20,12,18,9.60
2014,06,20,12,19,11.30
2014,06,20,12,20,9.60
2014,06,20,12,21,9.60
2014,06,20,12,22,8.10
2014,06,20,12,23,6.40
2014,06,20,12,24,8.10
2014,06,20,12,25,8.10
2014,06,20,12,26,6.40
2014,06,20,12,27,8.10
2014,06,20,12,28,9.60
2014,06,20,12,29,8.10
2014,06,20,12,30,9.60
2014,06,20,12,31,8.10
2014,06,20,12,32,6.40
2014,06,20,12,33,9.60
2014,06,20,12,34,9.60
2014,06,20,12,35,11.30
2014,06,20,12,36,12.90
2014,06,20,12,37,8.10
2014,06,20,12,38,11.30
2014,06,20,12,39,9.60
2014,06,20,12,40,6.40
2014,06,20,12,41,9.60
2014,06,20,12,42,14.50
2014,06,20,12,43,9.60
2014,06,20,12,44,11.30
2014,06,20,12,45,8.10
2014,06,20,12,46,8.10
2014,06,20,12,47,9.60
2014,06,20,12,48,9.60
2014,06,20,12,49,11.30
2014,06,20,12,50,9.60
2014,06,20,12,51,12.90
2014,06,20,12,52,9.60
2014,06,20,12,53,9.60
2014,06,20,12,54,11.30
2014,06,20,12,55,14.50
2014,06,20,12,56,9.60
2014,06,20,12,57,14.50
2014,06,20,12,58,11.30
2014,06,20,12,59,14.50
2014,06,20,13,00,12.90
2014,06,20,13,01,11.30
2014,06,20,13,02,17.70
2014,06,20,13,03,14.50
2014,06,20,13,04,14.50
2014,06,20,13,05,17.70
2014,06,20,13,06,16.10
2014,06,20,13,07,14.50
2014,06,20,13,08,16.10
2014,06,20,13,09,14.50
2014,06,20,13,10,11.30
2014,06,20,13,11,16.10
2014,06,20,13,12,11.30
2014,06,20,13,13,19.30
2014,06,20,13,14,16.10
2014,06,20,13,15,11.30
2014,06,20,13,16,14.50
2014,06,20,13,17,14.50
2014,06,20,13,18,14.50
2014,06,20,13,19,9.60
2014,06,20,13,20,6.40
2014,06,20,13,21,11.30
2014,06,20,13,22,9.60
2014,06,20,13,23,14.50
2014,06,20,13,24,16.10
2014,06,20,13,25,14.50
2014,06,20,13,26,16.10
2014,06,20,13,27,16.10
2014,06,20,13,28,9.60
2014,06,20,13,29,12.90
2014,06,20,13,30,16.10
2014,06,20,13,31,14.50
2014,06,20,13,32,19.30
2014,06,20,13,33,14.50
2014,06,20,13,34,16.10
2014,06,20,13,35,12.90
2014,06,20,13,36,14.50
2014,06,20,13,37,17.70
2014,06,20,13,38,19.30
2014,06,20,13,39,19.30
2014,06,20,13,40,17.70
2014,06,20,13,41,11.30
2014,06,20,13,42,14.50
2014,06,20,13,43,16.10
2014,06,20,13,44,17.70
2014,06,20,13,45,16.10
2014,06,20,13,46,14.50
2014,06,20,13,47,14.50
2014,06,20,13,48,12.90
2014,06,20,13,49,17.70
2014,06,20,13,50,17.70
2014,06,20,13,51,12.90
2014,06,20,13,52,14.50
2014,06,20,13,53,9.60
2014,06,20,13,54,14.50
2014,06,20,13,55,16.10
2014,06,20,13,56,16.10
2014,06,20,13,57,17.70
2014,06,20,13,58,11.30
2014,06,20,13,59,12.90
2014,06,20,14,00,17.70
2014,06,20,14,01,12.90
2014,06,20,14,02,12.90
2014,06,20,14,03,16.10
2014,06,20,14,04,11.30
2014,06,20,14,05,8.10
2014,06,20,14,06,11.30
2014,06,20,14,07,9.60
2014,06,20,14,08,16.10
2014,06,20,14,09,14.50
2014,06,20,14,10,14.50
2014,06,20,14,11,12.90
2014,06,20,14,12,16.10
2014,06,20,14,13,11.30
2014,06,20,14,14,11.30
2014,06,20,14,15,14.50
2014,06,20,14,16,14.50
2014,06,20,14,17,12.90
2014,06,20,14,18,11.30
2014,06,20,14,19,14.50
2014,06,20,14,20,16.10
2014,06,20,14,21,17.70
2014,06,20,14,22,12.90
2014,06,20,14,23,12.90
2014,06,20,14,24,11.30
2014,06,20,14,25,11.30
2014,06,20,14,26,11.30
2014,06,20,14,27,11.30
2014,06,20,14,28,9.60
2014,06,20,14,29,9.60
2014,06,20,14,30,11.30
2014,06,20,14,31,11.30
2014,06,20,14,32,9.60
2014,06,20,14,33,8.10
2014,06,20,14,34,6.40
2014,06,20,14,35,4.80
2014,06,20,14,36,6.40
2014,06,20,14,37,6.40
2014,06,20,14,38,6.40
2014,06,20,14,39,4.80
2014,06,20,14,40,6.40
2014,06,20,14,41,6.40
2014,06,20,14,42,8.10
2014,06,20,14,43,6.40
2014,06,20,14,44,6.40
2014,06,20,14,45,6.40
2014,06,20,14,46,6.40
2014,06,20,14,47,4.80
2014,06,20,14,48,4.80
2014,06,20,14,49,6.40
2014,06,20,14,50,4.80
2014,06,20,14,51,8.10
2014,06,20,14,52,6.40
2014,06,20,14,53,6.40
2014,06,20,14,54,6.40
2014,06,20,14,55,6.40
2014,06,20,14,56,3.20
2014,06,20,14,57,1.60
2014,06,20,15,00,4.80
2014,06,20,15,01,3.20
2014,06,20,15,02,1.60
2014,06,20,15,03,3.20
2014,06,20,15,04,3.20
2014,06,20,15,05,4.80
2014,06,20,15,06,8.10
2014,06,20,15,07,6.40
2014,06,20,15,08,9.60
2014,06,20,15,09,8.10
2014,06,20,15,10,6.40
2014,06,20,15,11,6.40
2014,06,20,15,12,6.40
2014,06,20,15,13,6.40
2014,06,20,15,14,4.80
2014,06,20,15,15,6.40
2014,06,20,15,16,6.40
2014,06,20,15,17,6.40
2014,06,20,15,18,3.20
2014,06,20,15,19,3.20
2014,06,20,15,20,1.60
2014,06,20,15,21,1.60
2014,06,20,15,22,3.20
2014,06,20,15,23,6.40
2014,06,20,15,24,6.40
2014,06,20,15,25,8.10
2014,06,20,15,26,6.40
2014,06,20,15,27,6.40
2014,06,20,15,28,8.10
2014,06,20,15,29,6.40
2014,06,20,15,30,6.40
2014,06,20,15,31,6.40
2014,06,20,15,32,9.60
2014,06,20,15,33,9.60
2014,06,20,15,34,8.10
2014,06,20,15,35,8.10
2014,06,20,15,36,8.10
2014,06,20,15,37,8.10
2014,06,20,15,38,4.80
2014,06,20,15,39,6.40
2014,06,20,15,40,9.60
2014,06,20,15,41,6.40
2014,06,20,15,42,8.10
2014,06,20,15,43,6.40
2014,06,20,15,44,6.40
2014,06,20,15,45,8.10
2014,06,20,15,46,8.10
2014,06,20,15,47,6.40
2014,06,20,15,48,8.10
2014,06,20,15,49,8.10
2014,06,20,15,50,9.60
2014,06,20,15,51,11.30
2014,06,20,15,52,8.10
2014,06,20,15,53,11.30
2014,06,20,15,54,11.30
2014,06,20,15,55,8.10
2014,06,20,15,56,14.50
2014,06,20,15,57,11.30
2014,06,20,15,58,8.10
2014,06,20,15,59,11.30
2014,06,20,16,00,9.60
2014,06,20,16,01,6.40
2014,06,20,16,02,9.60
2014,06,20,16,03,8.10
2014,06,20,16,04,14.50
2014,06,20,16,05,9.60
2014,06,20,16,06,14.50
2014,06,20,16,07,17.70
2014,06,20,16,08,11.30
2014,06,20,16,09,14.50
2014,06,20,16,10,14.50
2014,06,20,16,11,17.70
2014,06,20,16,12,11.30
2014,06,20,16,13,14.50
2014,06,20,16,14,11.30
2014,06,20,16,15,11.30
2014,06,20,16,16,14.50
2014,06,20,16,17,11.30
2014,06,20,16,18,9.60
2014,06,20,16,19,9.60
2014,06,20,16,20,12.90
2014,06,20,16,21,11.30
2014,06,20,16,22,9.60
2014,06,20,16,23,14.50
2014,06,20,16,24,17.70
2014,06,20,16,25,17.70
2014,06,20,16,26,16.10
2014,06,20,16,27,16.10
2014,06,20,16,28,16.10
2014,06,20,16,29,14.50
2014,06,20,16,30,11.30
2014,06,20,16,31,11.30
2014,06,20,16,32,14.50
2014,06,20,16,33,16.10
2014,06,20,16,34,14.50
2014,06,20,16,35,11.30
2014,06,20,16,36,11.30
2014,06,20,16,37,9.60
2014,06,20,16,38,11.30
2014,06,20,16,39,8.10
2014,06,20,16,40,9.60
2014,06,20,16,41,8.10
2014,06,20,16,42,8.10
2014,06,20,16,43,6.40
2014,06,20,16,44,8.10
2014,06,20,16,45,6.40
2014,06,20,16,46,8.10
2014,06,20,16,47,6.40
2014,06,20,16,48,8.10
2014,06,20,16,49,9.60
2014,06,20,16,50,6.40
2014,06,20,16,51,8.10
2014,06,20,16,52,6.40
2014,06,20,16,53,4.80
2014,06,20,16,54,8.10
2014,06,20,16,55,9.60
2014,06,20,16,56,11.30
2014,06,20,16,57,11.30
2014,06,20,16,58,8.10
2014,06,20,16,59,11.30
2014,06,20,17,00,8.10
2014,06,20,17,01,11.30
2014,06,20,17,02,6.40
2014,06,20,17,03,9.60
2014,06,20,17,04,9.60
2014,06,20,17,05,11.30
2014,06,20,17,06,8.10
2014,06,20,17,07,14.50
2014,06,20,17,08,17.70
2014,06,20,17,09,14.50
2014,06,20,17,10,16.10
2014,06,20,17,11,16.10
2014,06,20,17,12,12.90
2014,06,20,17,13,14.50
2014,06,20,17,14,9.60
2014,06,20,17,15,9.60
2014,06,20,17,16,11.30
2014,06,20,17,17,9.60
2014,06,20,17,18,11.30
2014,06,20,17,19,17.70
2014,06,20,17,20,11.30
2014,06,20,17,21,8.10
2014,06,20,17,22,8.10
2014,06,20,17,23,17.70
2014,06,20,17,24,20.90
2014,06,20,17,25,19.30
2014,06,20,17,26,17.70
2014,06,20,17,27,17.70
2014,06,20,17,28,14.50
2014,06,20,17,29,16.10
2014,06,20,17,30,19.30
2014,06,20,17,31,17.70
2014,06,20,17,32,14.50
2014,06,20,17,33,16.10
2014,06,20,17,34,17.70
2014,06,20,17,35,19.30
2014,06,20,17,36,19.30
2014,06,20,17,37,17.70
2014,06,20,17,38,16.10
2014,06,20,17,39,16.10
2014,06,20,17,40,17.70
2014,06,20,17,41,16.10
2014,06,20,17,42,17.70
2014,06,20,17,43,19.30
2014,06,20,17,44,19.30
2014,06,20,17,45,17.70
2014,06,20,17,46,16.10
2014,06,20,17,47,17.70
2014,06,20,17,48,19.30
2014,06,20,17,49,19.30
2014,06,20,17,50,20.90
2014,06,20,17,51,17.70
2014,06,20,17,52,20.90
2014,06,20,17,53,17.70
2014,06,20,17,54,19.30
2014,06,20,17,55,16.10
2014,06,20,17,56,16.10
2014,06,20,17,57,16.10
2014,06,20,17,58,17.70
2014,06,20,17,59,17.70
2014,06,20,18,00,19.30
2014,06,20,18,01,16.10
2014,06,20,18,02,20.90
2014,06,20,18,03,16.10